Date String (YYYY-MM-DD hh:mm:ss) UTC,Instrument flags,absolute air pressure of the measurement (hPa),sample flow rate (lpm),inlet stack bypass flow (lpm),air temperature of the measurement (°C),ambient temperature measured by the external sensor (°C),aerosol sample conditioner tube jacket temperature (°C),OPC LED temperature (°C),internal box temperature (°C),relative humidity of the measurement (%),span deviation,mass concentration of particles derived from Lorenz-Mie calculation of OPC scattering (μg/m³),mass concentration of particles derived from Lorenz-Mie calculation of OPC scattering (μg/m³),mass concentration of particles derived from Lorenz-Mie calculation of OPC scattering (μg/m³)
DateTimeUTC,F1_M11,P_M11,Q1_M11,Q2_M11,T1_M11,T2_M11,T3_M11,T4_M11,T5_M11,U1_M11,ZSPAN_M11,X2_M11,X0_M11,X1_M11
2023-09-15 17:00:00,SystemResetWarning,0838.2,5.00,000.00,028.5,027.2,000.0,036.8,030.2,24.5,0000.0,0004.44,0008.78,0003.71
2023-09-15 17:01:00,SystemResetWarning,0838.2,5.00,000.00,028.5,027.2,000.0,036.8,030.2,24.8,0000.0,0004.42,0008.87,0003.71
2023-09-15 17:02:00,SystemResetWarning,0838.2,4.99,000.00,028.5,027.2,000.0,036.8,030.2,24.6,0000.0,0004.40,0008.91,0003.70
2023-09-15 17:03:00,SystemResetWarning,0838.2,5.00,000.00,028.6,027.3,000.0,036.8,030.2,24.6,0000.0,0004.39,0008.87,0003.70
2023-09-15 17:04:00,SystemResetWarning,0838.2,5.00,000.00,028.6,027.3,000.0,036.8,030.3,25.1,0000.0,0004.40,0009.40,0003.70
2023-09-15 17:05:00,SystemResetWarning,0838.2,5.00,000.00,028.6,027.3,000.0,036.8,030.3,25.2,0000.0,0004.39,0009.36,0003.70
2023-09-15 17:06:00,SystemResetWarning,0838.1,5.00,000.00,028.6,027.3,000.0,036.8,030.3,24.7,0000.0,0004.35,0010.14,0003.69
2023-09-15 17:07:00,SystemResetWarning,0838.2,4.99,000.00,028.6,027.3,000.0,036.8,030.3,24.3,0000.0,0004.34,0010.52,0003.69
2023-09-15 17:08:00,SystemResetWarning,0838.2,5.00,000.00,028.7,027.4,000.0,036.9,030.3,24.7,0000.0,0004.35,0010.63,0003.68
2023-09-15 17:09:00,SystemResetWarning,0838.2,5.00,000.00,028.7,027.4,000.0,036.9,030.4,25.1,0000.0,0004.35,0010.88,0003.68
2023-09-15 17:10:00,SystemResetWarning,0838.1,5.00,000.00,028.7,027.4,000.0,036.9,030.4,24.2,0000.0,0004.32,0010.77,0003.69
2023-09-15 17:11:00,SystemResetWarning,0838.2,5.01,000.00,028.7,027.4,000.0,036.9,030.4,23.9,0000.0,0004.30,0010.66,0003.68
2023-09-15 17:12:00,SystemResetWarning,0838.2,5.01,000.00,028.7,027.5,000.0,036.9,030.4,23.7,0000.0,0004.33,0010.55,0003.69
2023-09-15 17:13:00,SystemResetWarning,0838.2,4.99,000.00,028.7,027.5,000.0,036.9,030.4,23.8,0000.0,0004.35,0010.50,0003.69
2023-09-15 17:14:00,SystemResetWarning,0838.2,4.99,000.00,028.8,027.5,000.0,037.0,030.5,24.5,0000.0,0004.36,0010.47,0003.70
2023-09-15 17:15:00,SystemResetWarning,0838.2,4.99,000.00,028.8,027.5,000.0,037.0,030.5,25.0,0000.0,0004.38,0010.16,0003.69
2023-09-15 17:16:00,SystemResetWarning,0838.2,5.00,000.00,028.8,027.5,000.0,037.0,030.5,24.1,0000.0,0004.38,0009.94,0003.68
2023-09-15 17:17:00,SystemResetWarning,0838.2,5.00,000.00,028.8,027.5,000.0,037.0,030.5,24.3,0000.0,0004.37,0009.58,0003.68
2023-09-15 17:18:00,SystemResetWarning,0838.2,5.01,000.00,028.8,027.5,000.0,037.0,030.5,24.4,0000.0,0004.38,0008.80,0003.70
2023-09-15 17:19:00,SystemResetWarning,0838.2,5.00,000.00,028.8,027.5,000.0,037.0,030.5,25.1,0000.0,0004.39,0008.74,0003.71
2023-09-15 17:20:00,SystemResetWarning,0838.2,5.00,000.00,028.9,027.5,000.0,037.1,030.5,24.9,0000.0,0004.38,0007.96,0003.71
2023-09-15 17:21:00,SystemResetWarning,0838.2,4.99,000.00,028.9,027.5,000.0,037.1,030.5,24.7,0000.0,0004.41,0007.90,0003.71
2023-09-15 17:22:00,SystemResetWarning,0838.2,5.00,000.00,028.9,027.5,000.0,037.1,030.5,24.6,0000.0,0004.43,0007.90,0003.72
2023-09-15 17:23:00,SystemResetWarning,0838.2,5.01,000.00,028.9,027.5,000.0,037.1,030.5,25.0,0000.0,0004.42,0008.02,0003.73
2023-09-15 17:24:00,SystemResetWarning,0838.2,5.01,000.00,028.9,027.6,000.0,037.1,030.6,24.6,0000.0,0004.41,0008.08,0003.74
2023-09-15 17:25:00,SystemResetWarning,0838.2,4.99,000.00,028.9,027.6,000.0,037.1,030.6,24.2,0000.0,0004.41,0008.01,0003.75
2023-09-15 17:26:00,SystemResetWarning,0838.2,4.99,000.00,028.9,027.6,000.0,037.1,030.6,23.3,0000.0,0004.38,0008.06,0003.75
2023-09-15 17:27:00,SystemResetWarning,0838.2,4.99,000.00,028.9,027.6,000.0,037.2,030.6,23.5,0000.0,0004.34,0008.08,0003.75
2023-09-15 17:28:00,SystemResetWarning,0838.2,5.01,000.00,028.9,027.6,000.0,037.2,030.6,24.6,0000.0,0004.38,0008.84,0003.76
2023-09-15 17:29:00,SystemResetWarning,0838.2,5.01,000.00,029.0,027.6,000.0,037.2,030.7,24.2,0000.0,0004.38,0008.79,0003.75
2023-09-15 17:30:00,SystemResetWarning,0838.2,5.00,000.00,029.0,027.6,000.0,037.2,030.7,23.5,0000.0,0004.36,0008.77,0003.75
2023-09-15 17:31:00,SystemResetWarning,0838.2,4.99,000.00,029.0,027.7,000.0,037.2,030.7,23.7,0000.0,0004.37,0009.63,0003.75
2023-09-15 17:32:00,SystemResetWarning,0838.2,4.99,000.00,029.0,027.7,000.0,037.2,030.7,23.6,0000.0,0004.35,0009.65,0003.74
2023-09-15 17:33:00,SystemResetWarning,0838.2,5.00,000.00,029.0,027.7,000.0,037.2,030.7,23.2,0000.0,0004.31,0010.08,0003.73
2023-09-15 17:34:00,SystemResetWarning,0838.2,5.00,000.00,029.0,027.7,000.0,037.2,030.7,23.3,0000.0,0004.32,0010.23,0003.73
2023-09-15 17:35:00,SystemResetWarning,0838.2,5.01,000.00,029.0,027.7,000.0,037.3,030.7,23.3,0000.0,0004.32,0010.55,0003.73
2023-09-15 17:36:00,SystemResetWarning,0838.2,5.00,000.00,029.0,027.7,000.0,037.3,030.7,23.4,0000.0,0004.34,0011.17,0003.73
2023-09-15 17:37:00,SystemResetWarning,0838.2,5.00,000.00,029.1,027.7,000.0,037.3,030.7,23.9,0000.0,0004.43,0011.64,0003.73
2023-09-15 17:38:00,SystemResetWarning,0838.2,4.98,000.00,029.0,026.7,000.0,037.3,030.4,24.2,0000.0,0004.48,0011.60,0003.72
2023-09-15 17:39:00,SystemResetWarning,0838.2,5.01,000.00,028.9,025.1,000.0,037.2,029.9,24.5,0000.0,0004.46,0011.05,0003.71
2023-09-15 17:40:00,SystemResetWarning,0838.2,5.02,000.00,028.8,024.7,000.0,037.1,029.8,24.6,0000.0,0004.39,0010.72,0003.70
2023-09-15 17:41:00,SystemResetWarning,0838.2,4.99,000.00,028.7,024.9,000.0,037.1,029.7,24.6,0000.0,0004.38,0010.67,0003.70
2023-09-15 17:42:00,SystemResetWarning,0838.2,4.98,000.00,028.6,025.3,000.0,037.1,029.8,25.2,0000.0,0004.36,0010.12,0003.70
2023-09-15 17:43:00,SystemResetWarning,0838.2,5.01,000.00,028.5,025.6,000.0,037.1,029.9,24.2,0000.0,0004.36,0009.76,0003.70
2023-09-15 17:44:00,SystemResetWarning,0838.2,5.01,000.00,028.5,025.9,000.0,037.0,030.0,24.0,0000.0,0004.37,0009.53,0003.70
2023-09-15 17:45:00,SystemResetWarning,0838.2,5.00,000.00,028.5,026.2,000.0,037.0,030.0,24.3,0000.0,0004.38,0009.19,0003.71
2023-09-15 17:46:00,SystemResetWarning,0838.2,4.99,000.00,028.5,026.4,000.0,037.0,030.0,24.6,0000.0,0004.37,0009.17,0003.71
2023-09-15 17:47:00,SystemResetWarning,0838.2,5.01,000.00,028.5,026.5,000.0,037.0,030.1,24.7,0000.0,0004.35,0008.67,0003.71
2023-09-15 17:48:00,SystemResetWarning,0838.1,5.01,000.00,028.5,026.7,000.0,036.9,030.1,25.0,0000.0,0004.28,0008.80,0003.71
2023-09-15 17:49:00,SystemResetWarning,0838.2,4.99,000.00,028.5,026.8,000.0,036.9,030.1,24.9,0000.0,0004.26,0009.04,0003.71
2023-09-15 17:50:00,SystemResetWarning,0838.2,4.99,000.00,028.6,026.9,000.0,036.9,030.2,25.0,0000.0,0004.27,0009.58,0003.72
2023-09-15 17:51:00,SystemResetWarning,0838.2,4.99,000.00,028.6,027.0,000.0,036.9,030.2,24.4,0000.0,0004.32,0009.97,0003.73
2023-09-15 17:52:00,SystemResetWarning,0838.2,5.01,000.00,028.6,027.1,000.0,036.9,030.2,24.2,0000.0,0004.36,0010.24,0003.73
2023-09-15 17:53:00,SystemResetWarning,0838.2,5.01,000.00,028.6,027.1,000.0,036.9,030.2,24.3,0000.0,0004.35,0010.66,0003.73
2023-09-15 17:54:00,SystemResetWarning,0838.1,5.01,000.00,028.6,027.2,000.0,036.9,030.3,24.3,0000.0,0004.31,0010.89,0003.72
2023-09-15 17:55:00,SystemResetWarning,0838.1,5.00,000.00,028.6,027.2,000.0,036.9,030.3,23.8,0000.0,0004.32,0010.91,0003.73
2023-09-15 17:56:00,SystemResetWarning,0838.1,4.99,000.00,028.6,027.3,000.0,036.9,030.3,24.6,0000.0,0004.33,0010.78,0003.74
2023-09-15 17:57:00,SystemResetWarning,0838.0,5.00,000.00,028.7,027.3,000.0,036.9,030.3,23.8,0000.0,0004.31,0010.42,0003.73
2023-09-15 17:58:00,SystemResetWarning,0838.0,5.00,000.00,028.7,027.3,000.0,036.9,030.3,23.9,0000.0,0004.30,0010.38,0003.72
2023-09-15 17:59:00,SystemResetWarning,0838.0,5.00,000.00,028.7,027.3,000.0,037.0,030.3,24.1,0000.0,0004.28,0009.69,0003.72
